This is the latest recevied weather packets stored in our database for station/object K5SVV. If no packets are shown the sender has not sent any weather packets the latest 10 day(s).
| Time | Temp. | Humidity | Pressure | Rain* | Wind** | Luminosity | Snow |
|---|---|---|---|---|---|---|---|
| 1777854885 | 22.78° C | 49% | 1015.2 hPa | 0 mm | - | 25 W/m² | - |
| 1777854582 | 23.33° C | 49% | 1015.2 hPa | 0 mm | - | 32 W/m² | - |
| 1777854279 | 23.33° C | 48% | 1015.2 hPa | 0 mm | - | 32 W/m² | - |
| 1777853977 | 23.33° C | 48% | 1015.5 hPa | 0 mm | - | 27 W/m² | - |
| 1777853674 | 23.89° C | 46% | 1015.4 hPa | 0 mm | - | 33 W/m² | - |
| 1777853370 | 23.89° C | 46% | 1015.3 hPa | 0 mm | - | 36 W/m² | - |
| 1777853067 | 23.89° C | 45% | 1015.4 hPa | 0 mm | - | 39 W/m² | - |
| 1777852765 | 24.44° C | 45% | 1015.4 hPa | 0 mm | - | 40 W/m² | - |
| 1777852462 | 24.44° C | 44% | 1015.3 hPa | 0 mm | - | 41 W/m² | - |
| 1777852160 | 24.44° C | 44% | 1015.2 hPa | 0 mm | - | 44 W/m² | - |
| 1777851857 | 25° C | 44% | 1015.4 hPa | 0 mm | - | 105 W/m² | - |
| 1777851555 | 25° C | 43% | 1015.5 hPa | 0 mm | - | 156 W/m² | - |
| 1777851251 | 25° C | 44% | 1015.5 hPa | 0 mm | - | 174 W/m² | - |
| 1777850948 | 25° C | 44% | 1015.7 hPa | 0 mm | - | 189 W/m² | - |
| 1777850645 | 25° C | 41% | 1015.6 hPa | 0 mm | - | 191 W/m² | - |
| 1777850343 | 25.56° C | 40% | 1015.8 hPa | 0 mm | - | 188 W/m² | - |
| 1777850040 | 25.56° C | 40% | 1015.8 hPa | 0 mm | - | 243 W/m² | - |
| 1777849736 | 25.56° C | 38% | 1015.9 hPa | 0 mm | - | 253 W/m² | - |
| 1777849432 | 25.56° C | 38% | 1015.8 hPa | 0 mm | - | 291 W/m² | - |
| 1777849130 | 25.56° C | 39% | 1015.7 hPa | 0 mm | - | 258 W/m² | - |
| 1777848826 | 25.56° C | 38% | 1015.8 hPa | 0 mm | - | 317 W/m² | - |
| 1777848523 | 25.56° C | 39% | 1015.8 hPa | 0 mm | - | 336 W/m² | - |
| 1777848220 | 26.11° C | 38% | 1015.7 hPa | 0 mm | - | 366 W/m² | - |
| 1777847918 | 25.56° C | 39% | 1015.8 hPa | 0 mm | - | 409 W/m² | - |
| 1777847615 | 25.56° C | 38% | 1015.8 hPa | 0 mm | - | 368 W/m² | - |
* Rain latest hour (hover to see other rain measurements)
** Current wind speed in m/s (hover to see current wind gust speed)